Flight Information

DEPARTURE
OXNARD, CA
Elevation:
44
Runways:
7/25 - 5953x100 - ASPH-F
Active PE Departure:
25
Current PE ATIS:
L
Altimeter:
30.08
Remarks:
ATIS:
118.05 805-985-1758
Ground:
121.9
Tower:
134.95
DESTINATION
,
Elevation:
TPA:
1000 (est.)


6827.9 NM73° True-14° Var58° HDG

Flight Plan:
(click to file on line)

1. Type
2. Aircraft Identification
3. Aircraft Type / Special Equipment
4. True Airspeed
kts
5. Departure Airport
(ICAO code)
6. Arriving Airport
(ICAO code)
7. Cruising Altitude
ft
8. Alternate Airport
(ICAO code)
9. Route of Flight
10. Remarks


00:00:00 Departure ATIS: Destination ATIS:

Clearance Limit:
Route:
Altitude: Expect in minutes
Frequency:
Transponder: (7500 Hijack / 7600 Lost Comms / 7700 Emergency)


KOXR 211651Z 27006KT 6SM HZ FEW006 22/17 A3008 RMK AO2 SLP183 T02170167
Time: 2021-09-21T16:51:00Z
1632245926
Winds: 270 @ 6 kts
Visibility: 6.0 sm
Clouds (AGL): FEW 600
Temperature: 21.7 C
Dew Point: 16.7 C
Pressure: 30.079725 in Hgbr


Notes:

Data extracted from FAA Digital Chart Supplement. Effective: 0901Z Thursday, AUG 12, 2021 to 0901Z Thursday, OCT 7, 2021
Current ATIS data is provided courtisy of PilotEdge.